Location: Cave
(41.8160°N, 12.9350°E)
Time: 14:01:32
(UTC+02:00)

ISS - Pass Details

Date: 14 July 2019
Orbit: 409 x 418 km, 51.6° (Epoch: 22 July)

Event Time Altitude Azimuth Distance (km) Brightness Sun altitude
Exits shadow 01:35:50 19° 325° (NW) 1,053 -1.3 -26.2°
Maximum altitude 01:36:34 20° 344° (NNW) 1,007 -1.2 -26.2°
Drops below altitude 10° 01:39:08 10° 35° (NE) 1,482 -0.2 -26.2°
Enters shadow 02:47:24 -48° 267° (W) 9,991 3.2 -22.9°
